When you browse on this site, cookies collect data to enhance your experience and personalize the content and advertising you see.
Visit our Privacy Policy to learn more. By continuing to use the site, you agree to this use of cookies and data.
  • In Romania
  • List of Countries
  • For 7 days
  • Water Temperature
  • Weather Map
  • Weather Widgets
  • user-avatar
    Login

    Hourly Weather Campo Grande

    Today, 27 February, Thursday

    Time Temperature Precipitation Wind Pressure Humidity
    00:00 +20°C° 0 mm 2 mps 709 mmHg 92%
    01:00 +20°C° 0 mm 2 mps 708 mmHg 92%
    02:00 +20°C° 0 mm 2 mps 708 mmHg 91%
    03:00 +19°C° 0 mm 2 mps 708 mmHg 91%
    04:00 +19°C° 0 mm 2 mps 708 mmHg 92%
    05:00 +19°C° 0 mm 2 mps 708 mmHg 93%
    06:00 +20°C° 0 mm 3 mps 709 mmHg 90%
    07:00 +21°C° 0 mm 3 mps 709 mmHg 87%
    08:00 +24°C° 0 mm 3 mps 710 mmHg 84%
    09:00 +25°C° 0 mm 3 mps 710 mmHg 77%
    10:00 +26°C° 0 mm 3 mps 710 mmHg 70%
    11:00 +28°C° 0 mm 3 mps 710 mmHg 64%
    12:00 +28°C° 0 mm 3 mps 710 mmHg 62%
    13:00 +29°C° 0 mm 3 mps 709 mmHg 61%
    14:00 +29°C° 0 mm 3 mps 709 mmHg 60%
    15:00 +28°C° 0 mm 3 mps 708 mmHg 64%
    16:00 +27°C° 0 mm 3 mps 708 mmHg 69%
    17:00 +27°C° 0 mm 3 mps 707 mmHg 74%
    18:00 +25°C° 0 mm 3 mps 708 mmHg 75%
    19:00 +24°C° 0 mm 2 mps 708 mmHg 76%
    20:00 +23°C° 0 mm 2 mps 709 mmHg 77%
    21:00 +21°C° 0 mm 2 mps 709 mmHg 79%
    22:00 +21°C° 0 mm 2 mps 709 mmHg 80%
    23:00 +21°C° 0 mm 2 mps 709 mmHg 82%

    Tomorrow, 28 February, Friday

    Time Temperature Precipitation Wind Pressure Humidity
    00:00 +20°C° 0 mm 2 mps 709 mmHg 85%
    01:00 +20°C° 0 mm 2 mps 709 mmHg 88%
    02:00 +20°C° 0 mm 2 mps 709 mmHg 91%
    03:00 +20°C° 0 mm 2 mps 709 mmHg 93%
    04:00 +20°C° 0 mm 2 mps 709 mmHg 94%
    05:00 +20°C° 0 mm 2 mps 709 mmHg 96%
    06:00 +21°C° 0 mm 3 mps 709 mmHg 91%
    07:00 +22°C° 0 mm 3 mps 710 mmHg 87%
    08:00 +25°C° 0 mm 4 mps 711 mmHg 83%
    09:00 +26°C° 0 mm 4 mps 711 mmHg 78%
    10:00 +27°C° 0 mm 4 mps 711 mmHg 73%
    11:00 +28°C° 0 mm 4 mps 711 mmHg 69%
    12:00 +29°C° 0.1 mm 4 mps 711 mmHg 67%
    13:00 +29°C° 0.1 mm 3 mps 710 mmHg 66%
    14:00 +29°C° 0.1 mm 3 mps 710 mmHg 65%
    15:00 +29°C° 0.1 mm 3 mps 709 mmHg 69%
    16:00 +28°C° 0.1 mm 3 mps 709 mmHg 73%
    17:00 +27°C° 0.1 mm 3 mps 708 mmHg 76%
    18:00 +26°C° 0 mm 3 mps 709 mmHg 78%
    19:00 +25°C° 0 mm 3 mps 709 mmHg 80%
    20:00 +22°C° 0 mm 4 mps 709 mmHg 82%
    21:00 +22°C° 0 mm 4 mps 710 mmHg 83%
    22:00 +22°C° 0 mm 3 mps 710 mmHg 84%
    23:00 +21°C° 0 mm 3 mps 710 mmHg 85%

    Day after tomorrow, 29 February, Saturday

    Time Temperature Precipitation Wind Pressure Humidity
    00:00 +21°C° 0 mm 3 mps 710 mmHg 86%
    01:00 +20°C° 0 mm 3 mps 710 mmHg 87%
    02:00 +20°C° 0 mm 3 mps 710 mmHg 88%
    03:00 +19°C° 0 mm 3 mps 710 mmHg 89%
    04:00 +19°C° 0 mm 2 mps 710 mmHg 90%
    05:00 +19°C° 0 mm 2 mps 710 mmHg 91%
    06:00 +20°C° 0 mm 3 mps 710 mmHg 89%
    07:00 +22°C° 0 mm 3 mps 711 mmHg 87%
    08:00 +23°C° 0 mm 4 mps 711 mmHg 84%
    09:00 +26°C° 0 mm 3 mps 712 mmHg 78%
    10:00 +27°C° 0 mm 3 mps 712 mmHg 71%
    11:00 +29°C° 0 mm 3 mps 712 mmHg 64%
    12:00 +29°C° 0 mm 3 mps 711 mmHg 62%
    13:00 +29°C° 0 mm 4 mps 711 mmHg 60%
    14:00 +30°C° 0 mm 4 mps 710 mmHg 58%
    15:00 +29°C° 0 mm 4 mps 710 mmHg 64%
    16:00 +28°C° 0 mm 4 mps 709 mmHg 69%
    17:00 +27°C° 0 mm 4 mps 709 mmHg 74%
    18:00 +26°C° 0 mm 4 mps 709 mmHg 76%
    19:00 +24°C° 0 mm 3 mps 709 mmHg 78%
    20:00 +22°C° 0 mm 3 mps 710 mmHg 81%
    21:00 +22°C° 0 mm 3 mps 710 mmHg 82%
    22:00 +21°C° 0 mm 3 mps 710 mmHg 83%
    23:00 +21°C° 0 mm 3 mps 710 mmHg 84%

    1 March, Sunday

    Time Temperature Precipitation Wind Pressure Humidity
    00:00 +20°C° 0 mm 3 mps 710 mmHg 85%
    01:00 +20°C° 0 mm 3 mps 710 mmHg 86%
    02:00 +20°C° 0 mm 3 mps 709 mmHg 87%
    03:00 +20°C° 0 mm 3 mps 709 mmHg 90%
    04:00 +20°C° 0 mm 3 mps 709 mmHg 92%
    05:00 +19°C° 0 mm 3 mps 709 mmHg 94%
    06:00 +20°C° 0 mm 4 mps 710 mmHg 92%
    07:00 +21°C° 0 mm 4 mps 711 mmHg 90%
    08:00 +22°C° 0 mm 4 mps 711 mmHg 88%
    09:00 +23°C° 0 mm 4 mps 711 mmHg 85%
    10:00 +25°C° 0 mm 4 mps 711 mmHg 82%
    11:00 +25°C° 0 mm 4 mps 711 mmHg 78%
    12:00 +26°C° 0 mm 4 mps 711 mmHg 76%
    13:00 +26°C° 0 mm 4 mps 710 mmHg 74%
    14:00 +27°C° 0 mm 4 mps 710 mmHg 72%
    15:00 +27°C° 0.1 mm 4 mps 710 mmHg 74%
    16:00 +26°C° 0.1 mm 4 mps 709 mmHg 76%
    17:00 +26°C° 0.1 mm 3 mps 709 mmHg 78%
    18:00 +25°C° 0 mm 3 mps 709 mmHg 83%
    19:00 +22°C° 0 mm 3 mps 709 mmHg 87%
    20:00 +21°C° 0 mm 3 mps 710 mmHg 91%
    21:00 +21°C° 0 mm 3 mps 710 mmHg 91%
    22:00 +20°C° 0 mm 3 mps 710 mmHg 92%
    23:00 +20°C° 0 mm 3 mps 710 mmHg 92%

    2 March, Monday

    Time Temperature Precipitation Wind Pressure Humidity
    00:00 +20°C° 0 mm 4 mps 709 mmHg 92%
    01:00 +20°C° 0 mm 4 mps 709 mmHg 93%
    02:00 +20°C° 0 mm 5 mps 709 mmHg 93%
    03:00 +20°C° 0 mm 5 mps 709 mmHg 91%
    04:00 +20°C° 0 mm 5 mps 709 mmHg 90%
    05:00 +20°C° 0 mm 5 mps 709 mmHg 88%
    06:00 +20°C° 0 mm 5 mps 710 mmHg 87%
    07:00 +20°C° 0 mm 5 mps 710 mmHg 85%
    08:00 +21°C° 0 mm 5 mps 710 mmHg 84%
    09:00 +22°C° 0 mm 5 mps 711 mmHg 81%
    10:00 +23°C° 0 mm 4 mps 711 mmHg 78%
    11:00 +25°C° 0 mm 4 mps 711 mmHg 75%
    12:00 +25°C° 0 mm 4 mps 710 mmHg 75%
    13:00 +25°C° 0 mm 4 mps 710 mmHg 75%
    14:00 +25°C° 0 mm 4 mps 709 mmHg 75%
    15:00 +25°C° 0 mm 4 mps 709 mmHg 76%
    16:00 +25°C° 0 mm 3 mps 708 mmHg 77%
    17:00 +25°C° 0 mm 3 mps 708 mmHg 79%
    18:00 +24°C° 0 mm 3 mps 708 mmHg 83%
    19:00 +21°C° 0 mm 3 mps 708 mmHg 88%
    20:00 +20°C° 0 mm 2 mps 709 mmHg 93%
    21:00 +20°C° 0 mm 3 mps 709 mmHg 93%
    22:00 +20°C° 0 mm 3 mps 709 mmHg 93%
    23:00 +20°C° 0 mm 3 mps 709 mmHg 93%

    3 March, Tuesday

    Time Temperature Precipitation Wind Pressure Humidity
    00:00 +19°C° 0 mm 3 mps 709 mmHg 94%
    01:00 +19°C° 0 mm 3 mps 708 mmHg 94%
    02:00 +19°C° 0 mm 2 mps 708 mmHg 95%
    03:00 +19°C° 0 mm 2 mps 708 mmHg 95%
    04:00 +18°C° 0 mm 2 mps 708 mmHg 95%
    05:00 +18°C° 0 mm 2 mps 708 mmHg 96%
    06:00 +19°C° 0 mm 2 mps 708 mmHg 93%
    07:00 +20°C° 0 mm 3 mps 709 mmHg 90%
    08:00 +21°C° 0 mm 3 mps 709 mmHg 88%
    09:00 +22°C° 0 mm 3 mps 710 mmHg 83%
    10:00 +25°C° 0 mm 3 mps 710 mmHg 79%
    11:00 +26°C° 0 mm 3 mps 710 mmHg 75%
    12:00 +26°C° 0 mm 3 mps 709 mmHg 73%
    13:00 +27°C° 0 mm 3 mps 709 mmHg 71%
    14:00 +27°C° 0 mm 3 mps 708 mmHg 69%
    15:00 +27°C° 0.1 mm 3 mps 708 mmHg 72%
    16:00 +26°C° 0.1 mm 3 mps 708 mmHg 76%
    17:00 +26°C° 0.1 mm 3 mps 707 mmHg 79%
    18:00 +24°C° 0 mm 3 mps 708 mmHg 83%
    19:00 +22°C° 0 mm 3 mps 708 mmHg 87%
    20:00 +21°C° 0 mm 3 mps 708 mmHg 91%
    21:00 +21°C° 0 mm 3 mps 708 mmHg 91%
    22:00 +20°C° 0 mm 3 mps 709 mmHg 92%
    23:00 +20°C° 0 mm 3 mps 709 mmHg 92%
    Show more